Time,TemperatureF,DewpointF,PressureIn,WindDirection,WindDirectionDegrees,WindSpeedMPH,WindSpeedGustMPH,Humidity,HourlyPrecipIn,Conditions,Clouds,dailyrainin,SoftwareType,DateUTC
2013-03-11 00:13:00,28.7,27.0,29.73,North,351,8.0,13.0,92,0.00,,,0.00,weatherlink.com 1.10,2013-03-11 05:13:00,
2013-03-11 00:28:00,28.5,27.0,29.73,North,355,8.0,13.0,92,0.00,,,0.00,weatherlink.com 1.10,2013-03-11 05:28:00,
2013-03-11 00:43:00,28.4,26.0,29.73,North,349,4.0,11.0,92,0.00,,,0.00,weatherlink.com 1.10,2013-03-11 05:43:00,
2013-03-11 00:58:00,28.3,26.0,29.74,North,360,5.0,9.0,92,0.00,,,0.00,weatherlink.com 1.10,2013-03-11 05:58:00,
2013-03-11 01:13:00,28.2,26.0,29.74,NNW,342,4.0,10.0,92,0.00,,,0.00,weatherlink.com 1.10,2013-03-11 06:13:00,
2013-03-11 01:28:00,28.0,26.0,29.74,North,355,7.0,10.0,92,0.00,,,0.00,weatherlink.com 1.10,2013-03-11 06:28:00,
2013-03-11 01:43:00,27.9,26.0,29.73,NW,316,5.0,11.0,92,0.00,,,0.00,weatherlink.com 1.10,2013-03-11 06:43:00,
2013-03-11 01:58:00,27.6,26.0,29.73,NNW,348,5.0,12.0,92,0.00,,,0.00,weatherlink.com 1.10,2013-03-11 06:58:00,
2013-03-11 02:13:00,27.5,26.0,29.73,NNW,344,3.0,10.0,92,0.00,,,0.00,weatherlink.com 1.10,2013-03-11 07:13:00,
2013-03-11 02:28:00,27.3,25.0,29.73,North,355,6.0,10.0,92,0.00,,,0.00,weatherlink.com 1.10,2013-03-11 07:28:00,
2013-03-11 02:43:00,27.1,25.0,29.73,NNW,347,8.0,9.0,92,0.00,,,0.00,weatherlink.com 1.10,2013-03-11 07:43:00,
2013-03-11 02:58:00,26.8,25.0,29.73,NNW,344,5.0,12.0,92,0.00,,,0.00,weatherlink.com 1.10,2013-03-11 07:58:00,
2013-03-11 03:13:00,26.6,25.0,29.73,NNW,346,7.0,13.0,92,0.00,,,0.00,weatherlink.com 1.10,2013-03-11 08:13:00,
2013-03-11 03:28:00,26.4,24.0,29.72,North,355,6.0,12.0,92,0.00,,,0.00,weatherlink.com 1.10,2013-03-11 08:28:00,
2013-03-11 03:43:00,26.2,24.0,29.71,NNW,330,3.0,11.0,92,0.00,,,0.00,weatherlink.com 1.10,2013-03-11 08:43:00,
2013-03-11 03:58:00,26.2,24.0,29.71,NNW,336,4.0,13.0,92,0.00,,,0.00,weatherlink.com 1.10,2013-03-11 08:58:00,
2013-03-11 04:13:00,26.1,24.0,29.71,NNW,338,5.0,10.0,92,0.00,,,0.00,weatherlink.com 1.10,2013-03-11 09:13:00,
2013-03-11 04:28:00,26.1,24.0,29.70,NW,317,5.0,14.0,91,0.00,,,0.00,weatherlink.com 1.10,2013-03-11 09:28:00,
2013-03-11 04:43:00,26.1,24.0,29.70,NNW,346,5.0,13.0,91,0.00,,,0.00,weatherlink.com 1.10,2013-03-11 09:43:00,
2013-03-11 04:58:00,26.0,24.0,29.70,NNW,327,5.0,15.0,91,0.00,,,0.00,weatherlink.com 1.10,2013-03-11 09:58:00,
2013-03-11 05:13:00,25.9,24.0,29.70,NNE,13,6.0,12.0,91,0.00,,,0.00,weatherlink.com 1.10,2013-03-11 10:13:00,
2013-03-11 05:28:00,25.7,24.0,29.71,NNW,337,7.0,13.0,91,0.00,,,0.00,weatherlink.com 1.10,2013-03-11 10:28:00,
2013-03-11 05:44:00,25.5,23.0,29.71,NW,326,6.0,15.0,91,0.00,,,0.00,weatherlink.com 1.10,2013-03-11 10:44:00,
2013-03-11 05:59:00,25.3,23.0,29.71,NNW,336,6.0,13.0,91,0.00,,,0.00,weatherlink.com 1.10,2013-03-11 10:59:00,
2013-03-11 06:14:00,25.2,23.0,29.71,NW,326,7.0,12.0,91,0.00,,,0.00,weatherlink.com 1.10,2013-03-11 11:14:00,
2013-03-11 06:29:00,25.2,23.0,29.71,NNW,345,9.0,15.0,91,0.00,,,0.00,weatherlink.com 1.10,2013-03-11 11:29:00,
2013-03-11 06:44:00,25.0,23.0,29.71,North,360,7.0,12.0,91,0.00,,,0.00,weatherlink.com 1.10,2013-03-11 11:44:00,
2013-03-11 06:59:00,24.9,23.0,29.72,NNW,342,7.0,13.0,91,0.00,,,0.00,weatherlink.com 1.10,2013-03-11 11:59:00,
2013-03-11 07:14:00,24.8,23.0,29.72,NNW,336,7.0,13.0,91,0.00,,,0.00,weatherlink.com 1.10,2013-03-11 12:14:00,
2013-03-11 07:29:00,24.7,23.0,29.72,NW,323,9.0,13.0,91,0.00,,,0.00,weatherlink.com 1.10,2013-03-11 12:29:00,
2013-03-11 07:44:00,24.7,23.0,29.73,NNW,346,13.0,13.0,91,0.00,,,0.00,weatherlink.com 1.10,2013-03-11 12:44:00,
2013-03-11 07:59:00,24.6,22.0,29.73,NW,315,8.0,17.0,91,0.00,,,0.00,weatherlink.com 1.10,2013-03-11 12:59:00,
2013-03-11 08:15:00,24.5,22.0,29.73,NW,323,4.0,13.0,91,0.00,,,0.00,weatherlink.com 1.10,2013-03-11 13:15:00,
2013-03-11 08:29:00,24.4,22.0,29.73,NW,324,8.0,15.0,91,0.00,,,0.00,weatherlink.com 1.10,2013-03-11 13:29:00,
2013-03-11 08:44:00,24.3,22.0,29.73,NNW,330,8.0,13.0,91,0.00,,,0.00,weatherlink.com 1.10,2013-03-11 13:44:00,
2013-03-11 08:59:00,24.3,22.0,29.74,NNW,347,5.0,16.0,91,0.00,,,0.00,weatherlink.com 1.10,2013-03-11 13:59:00,
2013-03-11 09:14:00,24.2,22.0,29.74,NNW,346,4.0,12.0,91,0.00,,,0.00,weatherlink.com 1.10,2013-03-11 14:14:00,
2013-03-11 09:29:00,24.3,22.0,29.74,North,355,9.0,17.0,91,0.00,,,0.00,weatherlink.com 1.10,2013-03-11 14:29:00,
2013-03-11 09:44:00,24.4,22.0,29.74,NNW,330,9.0,16.0,91,0.00,,,0.00,weatherlink.com 1.10,2013-03-11 14:44:00,
2013-03-11 09:59:00,24.5,22.0,29.74,NW,317,6.0,13.0,91,0.00,,,0.00,weatherlink.com 1.10,2013-03-11 14:59:00,
2013-03-11 10:14:00,24.5,22.0,29.74,NW,317,11.0,16.0,91,0.00,,,0.00,weatherlink.com 1.10,2013-03-11 15:14:00,
2013-03-11 10:29:00,24.5,22.0,29.74,NNW,338,5.0,13.0,90,0.00,,,0.00,weatherlink.com 1.10,2013-03-11 15:29:00,
2013-03-11 10:44:00,24.2,22.0,29.74,NW,323,10.0,19.0,90,0.00,,,0.00,weatherlink.com 1.10,2013-03-11 15:44:00,
2013-03-11 10:59:00,24.3,22.0,29.73,NNW,337,4.0,15.0,90,0.00,,,0.00,weatherlink.com 1.10,2013-03-11 15:59:00,
2013-03-11 11:14:00,24.6,22.0,29.73,NNW,336,14.0,16.0,90,0.00,,,0.00,weatherlink.com 1.10,2013-03-11 16:14:00,
2013-03-11 11:29:00,25.0,23.0,29.73,NNW,344,5.0,16.0,90,0.00,,,0.00,weatherlink.com 1.10,2013-03-11 16:29:00,
2013-03-11 11:44:00,25.3,23.0,29.73,NNW,342,9.0,18.0,90,0.00,,,0.00,weatherlink.com 1.10,2013-03-11 16:44:00,
2013-03-11 11:59:00,25.4,23.0,29.73,WNW,289,5.0,15.0,90,0.00,,,0.00,weatherlink.com 1.10,2013-03-11 16:59:00,
2013-03-11 12:14:00,25.2,23.0,29.73,North,350,7.0,21.0,90,0.00,,,0.00,weatherlink.com 1.10,2013-03-11 17:14:00,
2013-03-11 12:44:00,24.9,22.0,29.74,NW,323,12.0,17.0,90,0.00,,,0.00,weatherlink.com 1.10,2013-03-11 17:44:00,
2013-03-11 12:59:00,25.3,23.0,29.73,WNW,298,6.0,15.0,90,0.00,,,0.00,weatherlink.com 1.10,2013-03-11 17:59:00,
2013-03-11 13:14:00,25.1,22.0,29.74,North,360,6.0,17.0,89,0.00,,,0.00,weatherlink.com 1.10,2013-03-11 18:14:00,
2013-03-11 13:29:00,25.1,22.0,29.73,NNW,331,10.0,17.0,89,0.00,,,0.00,weatherlink.com 1.10,2013-03-11 18:29:00,
2013-03-11 13:44:00,25.3,23.0,29.73,WNW,300,4.0,16.0,90,0.00,,,0.00,weatherlink.com 1.10,2013-03-11 18:44:00,
2013-03-11 13:59:00,25.3,23.0,29.73,NNW,344,15.0,15.0,89,0.00,,,0.00,weatherlink.com 1.10,2013-03-11 18:59:00,
2013-03-11 14:14:00,25.4,23.0,29.74,NNW,339,11.0,15.0,90,0.00,,,0.00,weatherlink.com 1.10,2013-03-11 19:14:00,
2013-03-11 14:29:00,25.8,23.0,29.73,NW,310,11.0,13.0,89,0.00,,,0.00,weatherlink.com 1.10,2013-03-11 19:29:00,
2013-03-11 14:44:00,26.2,23.0,29.74,NNW,337,11.0,14.0,89,0.00,,,0.00,weatherlink.com 1.10,2013-03-11 19:44:00,
2013-03-11 14:59:00,25.2,22.0,29.74,NNW,327,10.0,17.0,89,0.00,,,0.00,weatherlink.com 1.10,2013-03-11 19:59:00,
2013-03-11 15:14:00,25.2,22.0,29.74,NNW,337,7.0,15.0,89,0.00,,,0.00,weatherlink.com 1.10,2013-03-11 20:14:00,
2013-03-11 15:29:00,25.3,23.0,29.75,WNW,302,6.0,15.0,89,0.00,,,0.00,weatherlink.com 1.10,2013-03-11 20:29:00,
2013-03-11 15:44:00,25.4,23.0,29.74,NNW,344,6.0,13.0,89,0.00,,,0.00,weatherlink.com 1.10,2013-03-11 20:44:00,
2013-03-11 15:59:00,25.2,22.0,29.75,NW,325,6.0,16.0,88,0.00,,,0.00,weatherlink.com 1.10,2013-03-11 20:59:00,
2013-03-11 16:14:00,24.9,22.0,29.76,NNW,346,9.0,14.0,88,0.00,,,0.00,weatherlink.com 1.10,2013-03-11 21:14:00,
2013-03-11 16:29:00,25.1,22.0,29.76,NNW,342,5.0,12.0,88,0.00,,,0.00,weatherlink.com 1.10,2013-03-11 21:29:00,
2013-03-11 16:44:00,25.0,22.0,29.77,NNW,329,2.0,14.0,89,0.01,,,0.01,weatherlink.com 1.10,2013-03-11 21:44:00,
2013-03-11 17:14:00,24.6,22.0,29.78,WNW,295,5.0,11.0,88,0.01,,,0.01,weatherlink.com 1.10,2013-03-11 22:14:00,
2013-03-11 17:29:00,24.4,21.0,29.78,NW,318,3.0,11.0,88,0.01,,,0.01,weatherlink.com 1.10,2013-03-11 22:29:00,
2013-03-11 17:45:00,24.2,21.0,29.78,NW,325,6.0,14.0,88,0.00,,,0.01,weatherlink.com 1.10,2013-03-11 22:45:00,
2013-03-11 18:00:00,23.8,21.0,29.78,NW,322,6.0,10.0,88,0.01,,,0.02,weatherlink.com 1.10,2013-03-11 23:00:00,
2013-03-11 18:15:00,23.5,21.0,29.78,NW,325,3.0,10.0,88,0.01,,,0.02,weatherlink.com 1.10,2013-03-11 23:15:00,
2013-03-11 18:30:00,23.4,20.0,29.79,WNW,302,3.0,10.0,88,0.01,,,0.02,weatherlink.com 1.10,2013-03-11 23:30:00,
2013-03-11 18:45:00,23.7,21.0,29.79,NW,325,5.0,12.0,88,0.01,,,0.02,weatherlink.com 1.10,2013-03-11 23:45:00,
2013-03-11 19:00:00,23.7,21.0,29.79,NW,317,2.0,9.0,88,0.00,,,0.02,weatherlink.com 1.10,2013-03-12 00:00:00,
2013-03-11 19:15:00,23.2,20.0,29.80,NW,317,2.0,10.0,88,0.00,,,0.02,weatherlink.com 1.10,2013-03-12 00:15:00,
2013-03-11 19:30:00,22.7,20.0,29.80,WNW,300,9.0,10.0,88,0.00,,,0.02,weatherlink.com 1.10,2013-03-12 00:30:00,
2013-03-11 19:45:00,22.5,20.0,29.81,NW,325,2.0,12.0,88,0.00,,,0.02,weatherlink.com 1.10,2013-03-12 00:45:00,
2013-03-11 20:00:00,22.2,19.0,29.82,NW,318,7.0,12.0,88,0.00,,,0.02,weatherlink.com 1.10,2013-03-12 01:00:00,
2013-03-11 20:15:00,21.9,19.0,29.83,WNW,299,0.0,7.0,87,0.00,,,0.02,weatherlink.com 1.10,2013-03-12 01:15:00,
2013-03-11 20:30:00,21.6,18.0,29.84,WNW,289,4.0,11.0,87,0.00,,,0.02,weatherlink.com 1.10,2013-03-12 01:30:00,
2013-03-11 20:45:00,21.4,18.0,29.84,NNW,327,5.0,11.0,87,0.00,,,0.02,weatherlink.com 1.10,2013-03-12 01:45:00,
2013-03-11 21:00:00,21.2,18.0,29.85,NNW,331,3.0,10.0,87,0.00,,,0.02,weatherlink.com 1.10,2013-03-12 02:00:00,
2013-03-11 21:15:00,20.8,18.0,29.85,West,267,1.0,8.0,87,0.00,,,0.02,weatherlink.com 1.10,2013-03-12 02:15:00,
2013-03-11 21:30:00,20.3,17.0,29.85,NW,314,1.0,6.0,87,0.00,,,0.02,weatherlink.com 1.10,2013-03-12 02:30:00,
2013-03-11 21:45:00,20.1,17.0,29.86,NNW,329,3.0,6.0,87,0.00,,,0.02,weatherlink.com 1.10,2013-03-12 02:45:00,
2013-03-11 22:00:00,20.0,17.0,29.86,WNW,283,1.0,6.0,87,0.00,,,0.02,weatherlink.com 1.10,2013-03-12 03:00:00,
2013-03-11 22:15:00,20.2,17.0,29.87,West,273,1.0,6.0,88,0.00,,,0.02,weatherlink.com 1.10,2013-03-12 03:15:00,
2013-03-11 22:30:00,21.1,18.0,29.87,NW,304,0.0,7.0,88,0.00,,,0.02,weatherlink.com 1.10,2013-03-12 03:30:00,
2013-03-11 22:45:00,21.7,19.0,29.87,WNW,298,3.0,9.0,88,0.00,,,0.02,weatherlink.com 1.10,2013-03-12 03:45:00,
2013-03-11 23:00:00,22.2,19.0,29.87,NW,313,4.0,8.0,88,0.00,,,0.02,weatherlink.com 1.10,2013-03-12 04:00:00,
2013-03-11 23:15:00,22.4,19.0,29.87,NW,306,3.0,7.0,88,0.00,,,0.02,weatherlink.com 1.10,2013-03-12 04:15:00,
2013-03-11 23:30:00,22.4,19.0,29.87,West,276,2.0,5.0,88,0.00,,,0.02,weatherlink.com 1.10,2013-03-12 04:30:00,
2013-03-11 23:45:00,22.4,19.0,29.87,West,277,1.0,4.0,88,0.00,,,0.02,weatherlink.com 1.10,2013-03-12 04:45:00,